Hourly Data Report for January 16, 2022

TORONTO CITY
ONTARIO
Current Station Operator: ECCC - MSC

43°40'00.000" N
79°24'00.000" W
112.50 m
6158355
71508
XTO

Download Data

Hourly Data (January 2022)
Hourly Data Report for January 16, 2022
TIME
LST
Temp Definition
°C
Dew Point Definition
°C
Rel Hum Definition
%
Precip. Amount Definition
mm

Wind Dir Definition
10's deg

Wind Spd Definition
km/h
Visibility Definition
km
Stn Press Definition
kPa
Hmdx Definition


Wind Chill Definition


Weather Definition


00:00 -14.0 -20.3 59 0.0       101.56     LegendNANA
01:00 -13.4 -18.3 67 0.0       101.46     LegendNANA
02:00 -12.5 -15.9 75 0.0       101.44     LegendNANA
03:00 -11.9 -14.9 79 0.0       101.34     LegendNANA
04:00 -11.7 -14.6 79 0.0       101.20     LegendNANA
05:00 -11.4 -14.5 78 0.0       101.13     LegendNANA
06:00 -9.2 -13.4 72 0.0       101.09     LegendNANA
07:00 -8.7 -13.4 69 0.0       101.05     LegendNANA
08:00 -8.7 -12.9 71 0.0       100.89     LegendNANA
09:00 -7.5 -11.3 74 0.0       100.81     LegendNANA
10:00 -6.7 -11.6 68 0.0       100.76     LegendNANA
11:00 -5.7 -11.2 65 0.0       100.69     LegendNANA
12:00 -5.0 -12.1 57 0.0       100.47     LegendNANA
13:00 -3.8 -11.7 54 0.0       100.27     LegendNANA
14:00 -3.5 -11.5 54 0.0       100.09     LegendNANA
15:00 -3.5 -9.6 63 0.0       100.02     LegendNANA
16:00 -3.4 -10.6 57 0.0       99.97     LegendNANA
17:00 -2.7 -9.6 59 0.0       99.84     LegendNANA
18:00 -2.1 -9.2 58 0.0       99.79     LegendNANA
19:00 -1.1 -8.9 55 0.0       99.74     LegendNANA
20:00 -0.2 -10.0 48 0.0       99.59     LegendNANA
21:00 0.2 -13.9 34 0.0       99.50     LegendNANA
22:00 -1.5 -5.9 72 0.0       99.42     LegendNANA
23:00 -2.7 -4.1 90 0.6       99.36     LegendNANA

Notes on Data Quality.

Legend

  • E = Estimated
  • M = Missing
  • NA = Not Available*
  • [empty] = Indicates an unobserved value
Date modified: